Location: Unspecified
(0.0000°N, 0.0000°E)
Time: 04:18:03
(UTC+00:00)

COSMOS 2429 - Visible Passes

Search period start: 03 June 2023 00:00
Search period end: 13 June 2023 00:00
Orbit: 952 x 1011 km, 83.0° (Epoch: 02 June)

Date Brightness Start Highest point End Pass type
(mag) Time Alt. Az. Time Alt. Az. Time Alt. Az.
03 Jun 6.5 02:57:54 31° NE 02:57:54 31° NE 03:01:36 10° NNE visible
03 Jun 6.7 04:42:44 14° WNW 04:42:44 14° WNW 04:44:38 10° NW visible
04 Jun 6.0 03:25:37 38° N 03:25:37 38° N 03:29:14 10° N visible
05 Jun 6.4 03:53:17 24° NW 03:53:17 24° NW 03:55:53 10° NNW visible
06 Jun 7.2 02:36:04 18° NE 02:36:04 18° NE 02:37:42 10° NNE visible
06 Jun 7.0 04:20:54 11° NW 04:20:54 11° NW 04:21:08 10° NW visible
07 Jun 6.9 03:03:39 21° N 03:03:39 21° N 03:05:26 10° N visible
08 Jun 7.0 03:31:11 15° NNW 03:31:11 15° NNW 03:32:11 10° NNW visible
10 Jun 7.5 02:41:21 11° N 02:41:21 11° N 02:41:38 10° N visible
